[[{"header":{"parameterUnit":"m.s-1","parameterCategory":1,"la1":30.2991,"la2":30.254,"lo1":-89.0895,"lo2":-89.0444,"dy":0.0017,"dx":0.0017,"nx":28,"ny":28,"refTime":"2025-07-28T09:00:00:Z","depth":0,"parameterNumber":2,"parameterNumberName":"U-component_of_WINDS"},"data":[0,0,0,0,0,0,0,0,0,0,0,0,0,0,0,0,0,0,0,0,0,0,0,0,0,0,0,0,0,0,0,0,0,0,0,0,0,0,0,0,0,0,0,0,0,0,0,0,0,0,0,0,0,0,0,0,0,0,1.1992,1.1992,0,1.2027,1.2027,1.2027,1.2032,1.2032,1.2031,1.2031,1.2068,1.2069,1.2071,0,0,0,0,0,0,0,0,0,0,0,0,0,1.1932,1.1933,1.1992,1.1992,1.1992,1.2027,1.2027,1.2028,1.2032,1.2032,1.2031,1.2031,1.2068,1.2069,1.2071,0,0,0,0,0,0,0,0,0,0,0,0,0,1.1961,1.1933,1.1991,1.1999,1.2,1.2026,1.2027,1.2028,1.2032,1.2032,1.2031,1.2031,1.2067,1.2069,1.2071,1.2093,0,0,1.2077,1.2078,0,0,0,0,0,0,0,0,1.196,1.1964,1.1997,1.1998,1.2,1.2024,1.202,1.205,1.2032,1.202,1.2031,1.2031,1.2054,1.2057,1.2065,1.2095,1.2096,1.2077,1.2078,1.2079,1.208,0,0,0,0,0,0,0,1.1958,1.1962,1.2005,1.1998,1.1999,1.2001,1.2005,1.2025,1.2039,1.2021,1.2021,1.2025,1.2055,1.2063,1.2066,1.2097,1.2077,1.2079,1.208,1.2081,1.215,1.2151,0,0,0,0,0,0,1.1954,1.196,1.2004,1.2007,1.1978,1.2003,1.2007,1.2017,1.2039,1.2042,1.2026,1.2026,1.206,1.2063,1.2067,1.2096,1.2079,1.2081,1.2082,1.215,1.215,1.2151,0,0,0,0,0,0,1.1953,1.1958,1.2003,1.1984,1.199,1.2004,1.2016,1.2018,1.2026,1.2043,1.2046,1.2032,1.206,1.2064,1.2087,1.2098,1.2082,1.2084,1.2149,1.215,1.2151,1.2154,0,0,0,0,0,0,1.1951,1.1957,1.1965,1.1984,1.1991,1.2022,1.2016,1.2019,1.2029,1.2029,1.2049,1.2052,1.2059,1.2084,1.2089,1.21,1.2085,1.2148,1.2149,1.2151,1.2153,1.2155,1.2157,0,0,0,0,0,1.1949,1.1964,1.1965,1.197,1.2,1.2022,1.2026,1.2034,1.203,1.2039,1.205,1.2051,1.2096,1.2087,1.2092,1.2104,1.2147,1.2149,1.215,1.2152,1.2155,1.2157,0,0,0,0,0,0,1.1945,1.1966,1.1968,1.1989,1.2004,1.2023,1.2033,1.2036,1.2052,1.2052,1.2062,1.2066,1.2089,1.2099,1.2088,1.2128,1.2121,1.2124,1.2121,1.2123,1.2125,1.2123,1.2087,0,0,0,0,0,1.1947,1.1962,1.198,1.1998,1.2005,1.2018,1.2028,1.2033,1.2049,1.2055,1.2068,1.2083,1.2102,1.2113,1.213,1.2155,1.216,1.2166,1.2168,1.2169,1.2171,1.2188,1.2192,1.2156,1.2156,1.2156,0,0,1.1951,1.1964,1.1973,1.1997,1.2009,1.2026,1.2023,1.204,1.2054,1.2058,1.2081,1.2091,1.2109,1.2134,1.2146,1.2143,1.2183,1.2171,1.2172,1.2174,1.219,1.2194,1.2196,1.2157,1.2157,1.2157,0,0,1.1966,1.1977,1.1994,1.2007,1.2025,1.2034,1.2039,1.2058,1.2065,1.2088,1.2092,1.2109,1.2139,1.2152,1.2163,1.2188,1.219,1.2193,1.2203,1.2219,1.2222,1.2225,1.2235,1.2239,1.2195,1.2195,1.2195,0,1.1969,1.1994,1.2002,1.2021,1.2032,1.2038,1.2056,1.2068,1.2091,1.21,1.2096,1.2136,1.2148,1.2178,1.2184,1.2192,1.2199,1.2191,1.2221,1.2223,1.2226,1.2237,1.224,1.2196,1.2196,1.2196,1.2196,0,1.1997,1.2014,1.2026,1.2049,1.2062,1.208,1.2093,1.2105,1.2111,1.2121,1.2146,1.2162,1.2184,1.2191,1.2195,1.2222,1.222,1.2218,1.2212,1.223,1.224,1.2244,1.2196,1.2196,1.2196,1.2196,0,0,1.2009,1.2039,1.2043,1.2055,1.2077,1.2092,1.2111,1.2133,1.2144,1.2161,1.2179,1.2206,1.2205,1.2218,1.2225,1.2239,1.226,1.2236,1.2237,1.2241,1.2294,1.2295,1.23,1.2262,1.2263,1.2264,1.2293,0,1.2028,1.2063,1.2073,1.2102,1.212,1.2127,1.2145,1.2161,1.2172,1.219,1.2202,1.2222,1.2219,1.2227,1.2241,1.2255,1.2271,1.2252,1.2281,1.2282,1.2277,1.2305,1.2306,1.2332,1.2296,1.2297,1.2298,0,1.2055,1.2073,1.2104,1.2127,1.2135,1.215,1.2173,1.2189,1.2209,1.2216,1.2232,1.2238,1.2261,1.2254,1.2287,1.2274,1.2286,1.2295,1.2296,1.23,1.2291,1.231,1.2341,1.2345,1.2303,1.2303,1.2303,0,1.2063,1.2095,1.2119,1.2129,1.2155,1.2167,1.2178,1.2198,1.2211,1.2231,1.2241,1.2263,1.2275,1.2293,1.2306,1.2299,1.2339,1.2332,1.2347,1.2347,1.2355,1.2355,1.239,1.2362,1.2362,1.2361,1.2361,0,1.2084,1.2103,1.2123,1.2138,1.2161,1.2174,1.2196,1.2209,1.2227,1.2245,1.2253,1.227,1.2286,1.2306,1.2317,1.2344,1.2349,1.2357,1.236,1.2357,1.2356,1.2365,1.2364,1.2363,1.2362,1.2362,1.2362,0,1.2096,1.211,1.2137,1.2161,1.2168,1.2184,1.2205,1.2221,1.2233,1.2257,1.2263,1.2282,1.2307,1.2322,1.2353,1.236,1.2391,1.2392,1.2384,1.2385,1.2401,1.24,1.2443,1.2451,1.2417,1.2417,1.2417,0,1.2108,1.2124,1.215,1.2163,1.2176,1.2196,1.2211,1.2225,1.224,1.2266,1.2279,1.2304,1.2325,1.2364,1.2382,1.2406,1.2409,1.2423,1.2413,1.2411,1.2412,1.2411,1.2414,1.2425,1.2425,1.2425,1.2426,0,1.213,1.2137,1.2157,1.2181,1.2198,1.2217,1.2236,1.2247,1.2265,1.2281,1.2307,1.2323,1.2356,1.2382,1.2409,1.2423,1.2428,1.2429,1.2434,1.2432,1.2427,1.2432,1.239,1.2428,1.2427,1.2427,1.2427,1.2427,1.2144,1.2159,1.2181,1.2204,1.222,1.2239,1.2256,1.2271,1.2292,1.232,1.2328,1.2355,1.2378,1.2415,1.243,1.2453,1.2451,1.2457,1.2459,1.2461,1.2463,1.2423,1.2457,1.2457,1.2457,1.2457,1.2457,0,1.2167,1.2182,1.2203,1.2231,1.225,1.2253,1.2276,1.2292,1.2316,1.2337,1.2358,1.2389,1.2415,1.2436,1.2463,1.2478,1.2482,1.2485,1.2484,1.2488,1.2462,1.2455,1.2482,1.2482,1.2482,1.2482,1.2482,1.2482,1.2181,1.2208,1.2218,1.2254,1.227,1.2297,1.231,1.2328,1.2345,1.238,1.2401,1.2415,1.2437,1.2466,1.2491,1.2497,1.2508,1.2511,1.2517,1.2492,1.249,1.2487,1.2481,1.2513,1.2513,1.2542,1.2542,1.2542]},{"header":{"parameterUnit":"m.s-1","parameterCategory":1,"la1":30.2991,"la2":30.254,"lo1":-89.0895,"lo2":-89.0444,"dy":0.0017,"dx":0.0017,"nx":28,"ny":28,"refTime":"2025-07-28T09:00:00:Z","depth":0,"parameterNumber":3,"parameterNumberName":"V-component_of_WINDS"},"data":[0,0,0,0,0,0,0,0,0,0,0,0,0,0,0,0,0,0,0,0,0,0,0,0,0,0,0,0,0,0,0,0,0,0,0,0,0,0,0,0,0,0,0,0,0,0,0,0,0,0,0,0,0,0,0,0,0,0,-2.7656,-2.7656,0,-2.7603,-2.7602,-2.7601,-2.7638,-2.7639,-2.7641,-2.7643,-2.7583,-2.758,-2.7576,0,0,0,0,0,0,0,0,0,0,0,0,0,-2.7789,-2.7786,-2.7657,-2.7656,-2.7655,-2.7603,-2.7602,-2.7601,-2.7638,-2.764,-2.7642,-2.7644,-2.7584,-2.758,-2.7576,0,0,0,0,0,0,0,0,0,0,0,0,0,-2.7732,-2.7785,-2.7657,-2.7667,-2.7668,-2.7603,-2.7602,-2.7601,-2.7637,-2.764,-2.7642,-2.7644,-2.7585,-2.758,-2.7576,-2.7496,0,0,-2.7561,-2.7559,0,0,0,0,0,0,0,0,-2.7736,-2.7728,-2.7666,-2.7666,-2.7667,-2.763,-2.7627,-2.7566,-2.7636,-2.7648,-2.7643,-2.7646,-2.7596,-2.759,-2.7575,-2.7493,-2.7491,-2.7561,-2.7558,-2.7556,-2.7554,0,0,0,0,0,0,0,-2.7739,-2.773,-2.7635,-2.7665,-2.7665,-2.7674,-2.7669,-2.7615,-2.7609,-2.7648,-2.765,-2.7644,-2.7596,-2.7579,-2.7573,-2.749,-2.7561,-2.7557,-2.7554,-2.7552,-2.7344,-2.7341,0,0,0,0,0,0,-2.7743,-2.7733,-2.7637,-2.7633,-2.7708,-2.7669,-2.7664,-2.7639,-2.7609,-2.7607,-2.7641,-2.7645,-2.7586,-2.7579,-2.7571,-2.7479,-2.7556,-2.7551,-2.7549,-2.7347,-2.7343,-2.7341,0,0,0,0,0,0,-2.7746,-2.7734,-2.7639,-2.7684,-2.7673,-2.7664,-2.7636,-2.7636,-2.7619,-2.7605,-2.7603,-2.7625,-2.7588,-2.7578,-2.7516,-2.7477,-2.7549,-2.7545,-2.735,-2.7346,-2.7342,-2.7291,0,0,0,0,0,0,-2.7749,-2.7735,-2.7705,-2.7683,-2.767,-2.7584,-2.7634,-2.7634,-2.7612,-2.7616,-2.7589,-2.7587,-2.7589,-2.7523,-2.7511,-2.7472,-2.7541,-2.7353,-2.7348,-2.7343,-2.7296,-2.7286,-2.7277,0,0,0,0,0,-2.7754,-2.7691,-2.7703,-2.7691,-2.7633,-2.7582,-2.7575,-2.758,-2.7608,-2.7578,-2.7569,-2.7588,-2.7483,-2.7516,-2.7503,-2.7462,-2.7356,-2.7349,-2.7344,-2.7301,-2.7288,-2.7277,0,0,0,0,0,0,-2.7705,-2.7688,-2.7701,-2.7629,-2.7607,-2.7588,-2.755,-2.7566,-2.7533,-2.7539,-2.7545,-2.7539,-2.7474,-2.7461,-2.7498,-2.7385,-2.7424,-2.7415,-2.7396,-2.7383,-2.7374,-2.7378,-2.7537,0,0,0,0,0,-2.7687,-2.7648,-2.7635,-2.7573,-2.7561,-2.7558,-2.7536,-2.7542,-2.7519,-2.7509,-2.7495,-2.7471,-2.7433,-2.7407,-2.7371,-2.7295,-2.729,-2.7261,-2.7251,-2.7243,-2.7235,-2.7197,-2.7184,-2.7321,-2.7321,-2.7321,0,0,-2.7647,-2.7633,-2.7607,-2.7563,-2.7546,-2.7506,-2.7549,-2.7504,-2.7475,-2.7501,-2.7443,-2.7432,-2.7405,-2.7336,-2.7305,-2.7324,-2.7197,-2.7236,-2.7229,-2.7226,-2.7189,-2.7176,-2.7165,-2.7317,-2.7317,-2.7318,0,0,-2.7554,-2.7539,-2.7487,-2.7471,-2.7447,-2.7446,-2.7433,-2.7413,-2.7407,-2.7349,-2.737,-2.7334,-2.7267,-2.7249,-2.723,-2.7135,-2.7151,-2.7122,-2.7072,-2.7034,-2.7024,-2.7014,-2.6982,-2.697,-2.7115,-2.7115,-2.7115,0,-2.7507,-2.7449,-2.7458,-2.7413,-2.7393,-2.7419,-2.7367,-2.735,-2.7314,-2.7299,-2.7322,-2.7242,-2.7225,-2.7154,-2.7131,-2.7114,-2.7101,-2.7125,-2.7025,-2.7015,-2.7007,-2.6976,-2.6963,-2.7111,-2.7112,-2.7112,-2.7112,0,-2.7394,-2.7353,-2.7314,-2.7282,-2.7258,-2.7209,-2.7211,-2.7185,-2.7194,-2.7191,-2.7132,-2.7114,-2.7076,-2.706,-2.7066,-2.6989,-2.7002,-2.7024,-2.7064,-2.699,-2.6962,-2.695,-2.7107,-2.7108,-2.7109,-2.711,0,0,-2.7266,-2.7244,-2.7229,-2.7216,-2.7193,-2.7161,-2.7115,-2.708,-2.7059,-2.7034,-2.6995,-2.6941,-2.6962,-2.6941,-2.6947,-2.6913,-2.6842,-2.694,-2.694,-2.6924,-2.6758,-2.6743,-2.6729,-2.6853,-2.6851,-2.6849,-2.6761,0,-2.7174,-2.7094,-2.7103,-2.7027,-2.699,-2.7016,-2.6975,-2.6956,-2.6952,-2.6921,-2.6915,-2.6878,-2.6908,-2.6896,-2.6864,-2.6857,-2.6809,-2.6863,-2.6817,-2.6815,-2.6824,-2.6713,-2.6696,-2.6614,-2.675,-2.6748,-2.6746,0,-2.7055,-2.7029,-2.695,-2.6936,-2.6921,-2.6885,-2.6855,-2.6824,-2.6804,-2.6804,-2.6783,-2.6795,-2.6748,-2.6789,-2.6725,-2.6763,-2.6744,-2.6738,-2.6735,-2.6731,-2.6777,-2.6708,-2.6588,-2.6576,-2.6728,-2.673,-2.6731,0,-2.6972,-2.6918,-2.6865,-2.6853,-2.6834,-2.6808,-2.6799,-2.6782,-2.6761,-2.6735,-2.6723,-2.669,-2.6673,-2.6648,-2.6652,-2.668,-2.6587,-2.6628,-2.6586,-2.6586,-2.6565,-2.6567,-2.6442,-2.6552,-2.6552,-2.6552,-2.6552,0,-2.6869,-2.6819,-2.6828,-2.6795,-2.6742,-2.6752,-2.6699,-2.6692,-2.6677,-2.6644,-2.6663,-2.6631,-2.6637,-2.6605,-2.6607,-2.6556,-2.6547,-2.6546,-2.6547,-2.6545,-2.6545,-2.6533,-2.6539,-2.6549,-2.655,-2.655,-2.6551,0,-2.6767,-2.6771,-2.6715,-2.6703,-2.6699,-2.666,-2.665,-2.6619,-2.6618,-2.6576,-2.6566,-2.6564,-2.6528,-2.6529,-2.6487,-2.6489,-2.6426,-2.6433,-2.6433,-2.6435,-2.6394,-2.6399,-2.6258,-2.6241,-2.6361,-2.636,-2.6359,0,-2.6701,-2.6664,-2.665,-2.663,-2.662,-2.6587,-2.6568,-2.6578,-2.6556,-2.6533,-2.6505,-2.6472,-2.6445,-2.6386,-2.638,-2.6349,-2.6356,-2.6309,-2.6351,-2.6351,-2.6358,-2.636,-2.6358,-2.6301,-2.6299,-2.6298,-2.6297,0,-2.6584,-2.6588,-2.656,-2.6534,-2.6511,-2.649,-2.6471,-2.6453,-2.6461,-2.6436,-2.6401,-2.6381,-2.634,-2.6307,-2.6278,-2.6268,-2.6284,-2.6285,-2.6274,-2.6271,-2.6274,-2.6274,-2.6412,-2.6287,-2.6288,-2.6289,-2.629,-2.629,-2.6499,-2.6469,-2.6455,-2.6425,-2.6412,-2.6395,-2.6366,-2.6364,-2.6335,-2.6304,-2.6311,-2.6272,-2.6255,-2.6219,-2.6206,-2.6175,-2.6192,-2.6176,-2.6172,-2.6168,-2.6164,-2.6278,-2.617,-2.617,-2.617,-2.6171,-2.6171,0,-2.6384,-2.6378,-2.6349,-2.6324,-2.63,-2.632,-2.6301,-2.628,-2.6246,-2.623,-2.6205,-2.6165,-2.6134,-2.6127,-2.6097,-2.6074,-2.6081,-2.6066,-2.6068,-2.6066,-2.615,-2.6163,-2.6061,-2.6061,-2.6061,-2.6061,-2.6061,-2.6061,-2.6322,-2.6273,-2.6277,-2.6223,-2.6216,-2.618,-2.6168,-2.6152,-2.614,-2.6096,-2.6071,-2.6068,-2.6056,-2.6026,-2.5999,-2.5998,-2.5986,-2.5968,-2.597,-2.6049,-2.606,-2.607,-2.6083,-2.5966,-2.5965,-2.5889,-2.5889,-2.5888]}]]